Resultado: 01/10/2017 - 5 KM FEMININO

Posição Nome Tempo
1 ANA APARECIDA DA COSTA 113 00:21:29
2 NEIDE SOARES DA SILVA 353 00:21:44
3 GISELE CRISTINA GILLI 28 00:21:58
4 VANESSA FERREIRA 131 00:22:42
5 ALINE STEFANIE DO CARMO 114 00:22:49
6 ALESSANDRA R. GOUVEIA 102 00:22:56
7 CLEIDE APARECIDA DE OLIVEIRA HERCULANO 302 00:23:04
8 PRISCILA RODRIGUES DA LUZ 204 00:23:15
9 GISELLY DE OLIVEIRA ASSUMPÇÃO 388 00:23:24
10 IZAURA MARIA CANDEIAS FAVORITO 328 00:23:27
11 CRISTIANE DEISE C. P. MARAFIGO 199 00:23:36
12 SANDRA REGINA DE SOUZA 372 00:23:46
13 VANESSA CRISTINA RODRIGUES DE BARROS DA SILVA 380 00:23:50
14 MARTA INACIA CARNEIRO 186 00:24:13
15 ALINE KATERIN PINHEIRO 175 00:24:35
16 ELAINE DE CASTRO 277 00:24:35
17 DIANE GASPARIN RORIG 307 00:24:35
18 IRENILSA APARECIDA DA SILVA SOARES 324 00:24:36
19 JEFERSON POLICARPO DA SILVA 390 00:24:38
20 SUELI ALBERTO PEREIRA 89 00:24:45
21 JULIANA DORIS DE C. M. FELIX 141 00:24:50
22 CLAUDIR PAULINO DA SILVA 301 00:25:06
23 CLEIDE LEANDRA DA SILVA 83 00:25:08
24 ELIZETE APARECIDA ORVATH 393 00:25:09
25 MARCIA CRISTINA RODRIGUES 343 00:25:13
26 DANIELA CORDEIRO 306 00:25:26
27 LUCIA BORGES 144 00:26:07
28 CLAUDIA ANA NORA AGUIAR 168 00:26:26
29 DAIANI ROBERTA DE SOUZA 118 00:26:30
30 SONIA INACIO RODRIGUES 146 00:26:39
31 MARIA GERLANDES P. SCHMIDT 134 00:26:43
32 PRISCILA DOS SANTOS 193 00:26:48
33 ROSANGELA A. DA S. DE SOUZA 71 00:26:52
34 CINTYA RACHEL PEREIRA 99 00:26:52
35 LUCIA MATEUS FERNANDES 82 00:27:04
36 LUCINEIA A. L. MARONEZI 149 00:27:22
37 ELIZABETE A. PEREIRA 109 00:27:23
38 TALITA GROSSL DE ARAUJO 375 00:27:23
39 MARCIA AP. DE SOUZA 117 00:27:27
40 DEBORA LOUYSE CRUZ DE CARVALHO 389 00:27:50
41 SONIA MARIA DA SILVA 95 00:27:55
42 JESSICA M. L. KURUNCI 129 00:28:00
43 GREICE KELLI S. S. FICAGNO 209 00:28:20
44 SANDRA MELISSA ZANELLI ZANIN 371 00:28:20
45 DAIANE NASCIMENTO 214 00:28:23
46 JINESSA I. MANGOLIN 210 00:28:24
47 ROSIANE C. BOLONHEZI 142 00:28:26
48 AURORA GALICIANI NOLEPA 294 00:28:27
49 TATIANA A. F. GARCIA 110 00:28:28
50 ROSANA 368 00:28:41
51 RENATA JANAÍNA DOS SANTOS 361 00:28:46
52 MELISSA FIX 98 00:28:49
53 DAYANE ELISA R. SENEDESI 182 00:28:50
54 SOLANGE ALVES 183 00:28:50
55 MARIA AP. F. BONFIM 190 00:28:52
56 RENATA MIRANDA DUARTE 362 00:28:53
57 MARIA LUCIA JOSIAS 206 00:28:54
58 LUCILENE DA SILVA GOMES 229 00:28:54
59 ELAINE AP. DE OLIVEIRA 192 00:28:56
60 LUCIANA FRANCISCA DA SILVA 340 00:28:57
61 SUELI CARMONA DIAS 259 00:28:58
62 LUCINÉIA DE PAULA FERREIRA 341 00:29:01
63 MARILENE APARECIDA DA SILVA 348 00:29:05
64 VERA LUCIA DA SILVA FERREIRA 398 00:29:15
65 KENIA ROSMERI TRAVAINI 188 00:29:16
66 IVONE APARECIDA DA SILVA SANTOS 222 00:29:16
67 ANA PAULA M. LOURENÇO 180 00:29:18
68 ALINE RODRIGUES SENEDESI 184 00:29:27
69 MALVINA NETA 342 00:29:29
70 EVELIN MILENA NEVES 316 00:29:32
71 MARA REGINA DARODDA 55 00:29:35
72 CLEONICE DA SILVA CARMO 303 00:29:35
73 DAIANE MARTINELLI 305 00:29:39
74 ELIS CRISTINA CORRER 314 00:29:42
75 FABIANA MARIA K. PEREIRA 164 00:29:51
76 CRISTIANE DA S. L. BERNARDES 91 00:29:53
77 MARIA DALVA DE SOUZA DA COSTA 345 00:30:37
78 ADRIANA DA FONSECA 24 00:30:44
79 REGIANE CRISTINA LOPES 90 00:30:45
80 DEBORA APARECIDA DE SOUZA 275 00:30:48
81 MARIA ELOISA V. TONELLI 125 00:30:53
82 VERA LUCIA NEGRI 126 00:31:08
83 RENATA A. VICENTE 262 00:31:13
84 TANIA CRISTINA E. FENATO 181 00:31:18
85 CEDIMARA DOS SANTOS 57 00:31:19
86 JAQUELINE F. PEREIRA 103 00:31:19
87 LUANA ASSOLARI G. SVERSUTI 97 00:31:20
88 ROSSANA HELOISA B. SAID 143 00:31:26
89 GESSIKA LORENA VIEIRA 261 00:31:33
90 VERONICA LOURENÇON BORO 81 00:31:37
91 ROSANIA DA S. ALMEIDA MOREIRA 12 00:31:44
92 JOSICLEIA DE SOUZA 205 00:31:54
93 GISELE LIMA V. COSTA 178 00:32:04
94 PAULA AP. DOS S. CLEMENTE 196 00:32:05
95 JULIANA A. ALVES DA COSTA 52 00:32:08
96 MARIA DO CARMO DA C. N. DE FARIAS 231 00:32:11
97 LUCIANA KURYLO VILLAS BOAS 227 00:32:17
98 HYNGRED DOS SANTOS NOGUEIRA 241 00:32:19
99 FRANCIELE FOLK 80 00:32:22
100 SANDRA SINCOSKI RUBILAR 373 00:32:28
101 ROSILDA DE FATIMA SUBTIL 247 00:32:33
102 ADENIR CRISTINA SEBASTIÃO GARCIA 420 00:32:37
103 MARIA CLARA DA S. MAROTTI 75 00:32:42
104 CRISTIANE MERCI NEVES DA SILVA 271 00:32:42
105 NEIDE TERESINHA FARIAS 354 00:32:47
106 APARECIDA DE FATIMA VENANCIO MENDES DUBAS 292 00:32:48
107 THAIS FREIRA DA CRUZ 238 00:32:52
108 LUCIANA COLAUTO 111 00:33:00
109 SONIA PEREIRA 108 00:33:05
110 DEBORA C. KURUNCZI 270 00:33:07
111 MARIA DE FÁTIMA QUERUBIM 346 00:33:09
112 SIRLEI FLORENCIO FREIRE DA CRUZ 237 00:33:34
113 IRIS F. C. SOBRINHO 220 00:33:43
114 ANGELA A. DE O. R. N. XAVIER 140 00:33:51
115 ANA PAULA A. MACHADO 185 00:33:55
116 ALESSADRA CRISTINA MACHADO 272 00:33:55
117 LUCIANA B. DA S. KURUNCZI 269 00:33:58
118 LEONI APARECIDA UHL ALMEIDA DOS SANTOS 338 00:33:59
119 JESSICA SCHMIDT BONILHA 166 00:34:08
120 VERA LUCIA MOREIRA 93 00:34:24
121 MARLA DE AGUIAR A. VACHTCHUK 276 00:34:40
122 JESSICA C. MANTOVANI 280 00:34:41
123 PRISCILA RAGANHAN 235 00:35:01
124 ROSANA ALVES DOS SANTOS 236 00:35:01
125 EMILLY CRISTINE DE SOUZA ROCHA 215 00:35:03
126 VANESSA AP. MATULOVIC 119 00:35:15
127 FLAVIA FRANCIELLE DA SILVA 322 00:35:16
128 JANAINA C. SOUZA SILVERIO 194 00:35:17
129 JAQUELINE MILANI BASTOS 329 00:35:17
130 ANDREIA M. DA SILVA 127 00:35:18
131 CLAUDENICE ASSOLARI 202 00:35:57
132 NATHALIA AUGUSTA G. ZARDO 170 00:35:59
133 CLECY AP. G. ZARDO 154 00:36:06
134 CARLA CRISTIANE GROSSL ROUEDE 297 00:36:08
135 VANESSA SALINAS RIGUETE 381 00:36:26
136 MARCIA MARIA HERMOGENES BAZANI 281 00:36:29
137 FRANCIELLE CASTRO DOS SANTOS 218 00:37:56
138 JÉSSICA HELENA CORBACHO 330 00:38:00
139 NEUSA GOMES FERREIRA 120 00:39:00
140 MEIRE GARCIA ALVES 350 00:39:20
141 CLAUDIA ALVES MOREIRA 244 00:39:28
142 ANA PAULA F. VELOZO 77 00:41:07
143 ADRIANA ALVES DE CARVALHO 203 00:41:08
<< Voltar